Time,TemperatureF,DewpointF,PressureIn,WindDirection,WindDirectionDegrees,WindSpeedMPH,WindSpeedGustMPH,Humidity,HourlyPrecipIn,Conditions,Clouds,dailyrainin,SoftwareType,DateUTC
2015-07-04 00:02:00,63.0,62.4,29.91,NW,315,3.6,3.6,98,0.00,,,0.00,meteobridge,2015-07-04 04:02:00,
2015-07-04 00:07:00,63.0,62.4,29.92,NW,315,3.1,3.1,98,0.00,,,0.00,meteobridge,2015-07-04 04:07:00,
2015-07-04 00:12:00,62.8,62.2,29.93,NW,315,2.7,-999.0,98,-99.99,,,0.00,Acu-Link.com,2015-07-04 04:12:00,
2015-07-04 00:17:00,62.2,61.7,29.92,NW,315,0.0,0.0,98,0.00,,,0.00,meteobridge,2015-07-04 04:17:00,
2015-07-04 00:22:00,62.1,61.5,29.93,NNW,337,2.0,2.0,98,0.00,,,0.00,meteobridge,2015-07-04 04:22:00,
2015-07-04 00:28:00,62.1,61.5,29.93,NNW,337,0.0,0.0,98,0.00,,,0.00,meteobridge,2015-07-04 04:28:00,
2015-07-04 00:33:00,62.1,61.5,29.93,NNW,337,0.0,0.0,98,0.00,,,0.00,meteobridge,2015-07-04 04:33:00,
2015-07-04 00:38:00,62.1,61.5,29.93,NW,315,0.0,0.0,98,0.00,,,0.00,meteobridge,2015-07-04 04:38:00,
2015-07-04 00:43:00,62.1,61.5,29.93,NW,315,2.0,3.1,98,0.00,,,0.00,meteobridge,2015-07-04 04:43:00,
2015-07-04 00:48:00,62.6,62.1,29.93,NW,315,0.0,0.0,98,0.00,,,0.00,meteobridge,2015-07-04 04:48:00,
2015-07-04 00:53:00,62.1,61.5,29.93,NW,315,2.0,2.0,98,0.00,,,0.00,meteobridge,2015-07-04 04:53:00,
2015-07-04 00:58:00,62.1,61.5,29.93,NW,315,0.0,1.1,98,0.00,,,0.00,meteobridge,2015-07-04 04:58:00,
2015-07-04 01:04:00,62.1,61.5,29.93,NW,315,0.0,0.0,98,0.00,,,0.00,meteobridge,2015-07-04 05:04:00,
2015-07-04 01:09:00,62.1,61.5,29.93,NW,315,0.0,0.0,98,0.00,,,0.00,meteobridge,2015-07-04 05:09:00,
2015-07-04 01:20:00,61.9,61.3,29.93,NW,315,0.0,0.0,98,0.00,,,0.00,meteobridge,2015-07-04 05:20:00,
2015-07-04 01:25:00,61.9,61.3,29.94,NW,315,1.1,2.7,98,0.00,,,0.00,meteobridge,2015-07-04 05:25:00,
2015-07-04 01:30:00,61.9,61.3,29.93,NW,315,2.7,2.7,98,0.00,,,0.00,meteobridge,2015-07-04 05:30:00,
2015-07-04 01:35:00,61.9,61.3,29.94,NW,315,0.0,0.0,98,0.00,,,0.00,meteobridge,2015-07-04 05:35:00,
2015-07-04 01:41:00,61.3,60.8,29.94,NW,315,0.0,0.0,98,0.00,,,0.00,meteobridge,2015-07-04 05:41:00,
2015-07-04 01:46:00,61.2,60.6,29.93,WNW,292,0.0,0.0,98,0.00,,,0.00,meteobridge,2015-07-04 05:46:00,
2015-07-04 01:52:00,61.7,61.2,29.94,WNW,292,0.0,0.0,98,0.00,,,0.00,meteobridge,2015-07-04 05:52:00,
2015-07-04 01:57:00,61.7,61.2,29.93,WNW,292,0.0,0.0,98,0.00,,,0.00,meteobridge,2015-07-04 05:57:00,
2015-07-04 02:02:00,61.7,61.2,29.93,WNW,292,0.0,0.0,98,0.00,,,0.00,meteobridge,2015-07-04 06:02:00,
2015-07-04 02:08:00,61.7,61.2,29.93,WNW,292,0.0,0.0,98,0.00,,,0.00,meteobridge,2015-07-04 06:08:00,
2015-07-04 02:13:00,61.3,60.8,29.92,WNW,292,0.0,0.0,98,0.00,,,0.00,meteobridge,2015-07-04 06:13:00,
2015-07-04 02:18:00,61.3,60.8,29.92,WNW,292,0.0,0.0,98,0.00,,,0.00,meteobridge,2015-07-04 06:18:00,
2015-07-04 02:23:00,61.2,60.6,29.93,WNW,292,0.0,0.0,98,0.00,,,0.00,meteobridge,2015-07-04 06:23:00,
2015-07-04 02:28:00,61.2,60.6,29.94,WNW,292,0.0,0.0,98,0.00,,,0.00,meteobridge,2015-07-04 06:28:00,
2015-07-04 02:33:00,61.2,60.6,29.94,WNW,292,0.0,0.0,98,0.00,,,0.00,meteobridge,2015-07-04 06:33:00,
2015-07-04 02:38:00,61.2,60.6,29.94,WNW,292,0.0,0.0,98,0.00,,,0.00,meteobridge,2015-07-04 06:38:00,
2015-07-04 02:43:00,61.0,60.4,29.94,WNW,292,0.0,0.0,98,0.00,,,0.00,meteobridge,2015-07-04 06:43:00,
2015-07-04 02:49:00,61.2,60.6,29.94,WNW,292,0.0,0.0,98,0.00,,,0.00,meteobridge,2015-07-04 06:49:00,
2015-07-04 02:55:00,61.2,60.6,29.94,WNW,292,0.0,0.0,98,0.00,,,0.00,meteobridge,2015-07-04 06:55:00,
2015-07-04 03:00:00,61.2,60.6,29.94,WNW,292,0.0,0.0,98,0.00,,,0.00,meteobridge,2015-07-04 07:00:00,
2015-07-04 03:05:00,61.0,60.4,29.93,WNW,292,0.0,0.0,98,0.00,,,0.00,meteobridge,2015-07-04 07:05:00,
2015-07-04 03:10:00,60.8,60.3,29.93,WNW,292,0.0,0.0,98,0.00,,,0.00,meteobridge,2015-07-04 07:10:00,
2015-07-04 03:16:00,60.8,60.3,29.93,WNW,292,0.0,0.0,98,0.00,,,0.00,meteobridge,2015-07-04 07:16:00,
2015-07-04 03:21:00,61.0,60.4,29.93,WNW,292,0.0,0.0,98,0.00,,,0.00,meteobridge,2015-07-04 07:21:00,
2015-07-04 03:26:00,61.0,60.4,29.93,WNW,292,0.0,0.0,98,0.00,,,0.00,meteobridge,2015-07-04 07:26:00,
2015-07-04 03:31:00,61.0,60.4,29.94,WNW,292,0.0,0.0,98,0.00,,,0.00,meteobridge,2015-07-04 07:31:00,
2015-07-04 03:37:00,61.0,60.4,29.94,WNW,292,0.0,0.0,98,0.00,,,0.00,meteobridge,2015-07-04 07:37:00,
2015-07-04 03:42:00,61.0,60.4,29.94,WNW,292,0.0,0.0,98,0.00,,,0.00,meteobridge,2015-07-04 07:42:00,
2015-07-04 03:48:00,61.2,60.6,29.94,WNW,292,0.0,0.0,98,0.00,,,0.00,meteobridge,2015-07-04 07:48:00,
2015-07-04 03:53:00,61.2,60.6,29.94,WNW,292,0.0,0.0,98,0.00,,,0.00,meteobridge,2015-07-04 07:53:00,
2015-07-04 03:58:00,61.2,60.6,29.94,WNW,292,0.0,0.0,98,0.00,,,0.00,meteobridge,2015-07-04 07:58:00,
2015-07-04 04:03:00,61.2,60.6,29.94,WNW,292,0.0,0.0,98,0.00,,,0.00,meteobridge,2015-07-04 08:03:00,
2015-07-04 04:08:00,61.2,60.6,29.94,WNW,292,0.0,0.0,98,0.00,,,0.00,meteobridge,2015-07-04 08:08:00,
2015-07-04 04:14:00,61.2,60.6,29.94,WNW,292,0.0,0.0,98,0.00,,,0.00,meteobridge,2015-07-04 08:14:00,
2015-07-04 04:19:00,61.2,60.6,29.94,WNW,292,0.0,0.0,98,0.00,,,0.00,meteobridge,2015-07-04 08:19:00,
2015-07-04 04:24:00,61.2,60.6,29.94,WNW,292,0.0,0.0,98,0.00,,,0.00,meteobridge,2015-07-04 08:24:00,
2015-07-04 04:29:00,61.2,60.6,29.94,WNW,292,0.0,0.0,98,0.00,,,0.00,meteobridge,2015-07-04 08:29:00,
2015-07-04 04:34:00,60.6,60.0,29.94,WNW,292,0.0,-999.0,98,-99.99,,,0.00,Acu-Link.com,2015-07-04 08:34:00,
2015-07-04 04:40:00,60.4,59.9,29.94,WNW,292,0.0,0.0,98,0.00,,,0.00,meteobridge,2015-07-04 08:40:00,
2015-07-04 04:45:00,60.3,59.7,29.94,WNW,292,0.0,0.0,98,0.00,,,0.00,meteobridge,2015-07-04 08:45:00,
2015-07-04 04:50:00,60.3,59.7,29.95,WNW,292,0.0,0.0,98,0.00,,,0.00,meteobridge,2015-07-04 08:50:00,
2015-07-04 04:55:00,60.3,59.7,29.95,WNW,292,0.0,0.0,98,0.00,,,0.00,meteobridge,2015-07-04 08:55:00,
2015-07-04 05:01:00,60.3,59.7,29.95,WNW,292,0.0,0.0,98,0.00,,,0.00,meteobridge,2015-07-04 09:01:00,
2015-07-04 05:06:00,60.3,59.7,29.94,WNW,292,0.0,0.0,98,0.00,,,0.00,meteobridge,2015-07-04 09:06:00,
2015-07-04 05:11:00,60.3,59.7,29.95,WNW,292,0.0,0.0,98,0.00,,,0.00,meteobridge,2015-07-04 09:11:00,
2015-07-04 05:17:00,60.3,59.7,29.94,WNW,292,0.0,0.0,98,0.00,,,0.00,meteobridge,2015-07-04 09:17:00,
2015-07-04 05:23:00,60.3,59.7,29.95,WNW,292,0.0,0.0,98,0.00,,,0.00,meteobridge,2015-07-04 09:23:00,
2015-07-04 05:28:00,60.3,59.7,29.95,WNW,292,0.0,0.0,98,0.00,,,0.00,meteobridge,2015-07-04 09:28:00,
2015-07-04 05:33:00,60.3,59.7,29.95,WNW,292,0.0,0.0,98,0.00,,,0.00,meteobridge,2015-07-04 09:33:00,
2015-07-04 05:38:00,60.3,59.7,29.95,WNW,292,0.0,0.0,98,0.00,,,0.00,meteobridge,2015-07-04 09:38:00,
2015-07-04 05:43:00,60.1,59.5,29.95,WNW,292,0.0,0.0,98,0.00,,,0.00,meteobridge,2015-07-04 09:43:00,
2015-07-04 05:48:00,59.9,59.4,29.96,WNW,292,0.0,0.0,98,0.00,,,0.00,meteobridge,2015-07-04 09:48:00,
2015-07-04 05:53:00,59.9,59.4,29.96,WNW,292,0.0,0.0,98,0.00,,,0.00,meteobridge,2015-07-04 09:53:00,
2015-07-04 05:59:00,59.5,59.0,29.97,WNW,292,0.0,0.0,98,0.00,,,0.00,meteobridge,2015-07-04 09:59:00,
2015-07-04 06:04:00,59.5,59.0,29.97,WNW,292,0.0,0.0,98,0.00,,,0.00,meteobridge,2015-07-04 10:04:00,
2015-07-04 06:10:00,59.5,59.0,29.97,WNW,292,0.0,0.0,98,0.00,,,0.00,meteobridge,2015-07-04 10:10:00,
2015-07-04 06:15:00,59.5,59.0,29.97,WNW,292,0.0,0.0,98,0.00,,,0.00,meteobridge,2015-07-04 10:15:00,
2015-07-04 06:20:00,59.4,58.8,29.97,WNW,292,0.0,0.0,98,0.00,,,0.00,meteobridge,2015-07-04 10:20:00,
2015-07-04 06:25:00,59.4,58.8,29.97,WNW,292,0.0,0.0,98,0.00,,,0.00,meteobridge,2015-07-04 10:25:00,
2015-07-04 06:31:00,59.4,58.8,29.97,WNW,292,0.0,0.0,98,0.00,,,0.00,meteobridge,2015-07-04 10:31:00,
2015-07-04 06:36:00,59.4,58.8,29.96,WNW,292,0.0,-999.0,98,-99.99,,,0.00,Acu-Link.com,2015-07-04 10:36:00,
2015-07-04 06:41:00,59.4,58.8,29.97,WNW,292,0.0,0.0,98,0.00,,,0.00,meteobridge,2015-07-04 10:41:00,
2015-07-04 06:52:00,59.9,59.4,29.97,WNW,292,0.0,0.0,98,0.00,,,0.00,meteobridge,2015-07-04 10:52:00,
2015-07-04 06:57:00,60.3,59.7,29.97,WNW,292,0.0,0.0,98,0.00,,,0.00,meteobridge,2015-07-04 10:57:00,
2015-07-04 07:02:00,60.3,59.7,29.98,WNW,292,0.0,0.0,98,0.00,,,0.00,meteobridge,2015-07-04 11:02:00,
2015-07-04 07:07:00,60.8,60.3,29.98,WNW,292,0.0,0.0,98,0.00,,,0.00,meteobridge,2015-07-04 11:07:00,
2015-07-04 07:12:00,61.2,60.6,29.99,WNW,292,0.0,0.0,98,0.00,,,0.00,meteobridge,2015-07-04 11:12:00,
2015-07-04 07:17:00,61.3,60.8,29.99,WNW,292,0.0,0.0,98,0.00,,,0.00,meteobridge,2015-07-04 11:17:00,
2015-07-04 07:23:00,61.9,61.3,29.99,WNW,292,0.0,0.0,98,0.00,,,0.00,meteobridge,2015-07-04 11:23:00,
2015-07-04 07:28:00,62.1,61.5,29.99,WNW,292,0.0,0.0,98,0.00,,,0.00,meteobridge,2015-07-04 11:28:00,
2015-07-04 07:34:00,62.2,61.7,29.99,WNW,292,0.0,0.0,98,0.00,,,0.00,meteobridge,2015-07-04 11:34:00,
2015-07-04 07:39:00,62.8,62.2,29.99,WNW,292,0.0,0.0,98,0.00,,,0.00,meteobridge,2015-07-04 11:39:00,
2015-07-04 07:44:00,63.0,62.4,29.99,WNW,292,0.0,0.0,98,0.00,,,0.00,meteobridge,2015-07-04 11:44:00,
2015-07-04 07:49:00,63.5,63.0,29.99,WNW,292,0.0,0.0,98,0.00,,,0.00,meteobridge,2015-07-04 11:49:00,
2015-07-04 07:54:00,63.9,63.3,29.99,NNE,22,0.0,0.0,98,0.00,,,0.00,meteobridge,2015-07-04 11:54:00,
2015-07-04 08:00:00,63.9,63.3,29.99,NNW,337,3.6,5.1,98,0.00,,,0.00,meteobridge,2015-07-04 12:00:00,
2015-07-04 08:05:00,64.0,63.5,29.99,NNW,337,3.1,4.0,98,0.00,,,0.00,meteobridge,2015-07-04 12:05:00,
2015-07-04 08:16:00,65.3,64.8,29.99,North,0,5.1,5.1,98,0.00,,,0.00,meteobridge,2015-07-04 12:16:00,
2015-07-04 08:21:00,65.5,64.9,29.99,NNW,337,5.1,5.1,98,0.00,,,0.00,meteobridge,2015-07-04 12:21:00,
2015-07-04 08:26:00,66.0,65.5,30.00,North,0,5.1,5.6,98,0.00,,,0.00,meteobridge,2015-07-04 12:26:00,
2015-07-04 08:31:00,66.6,66.0,30.00,NNW,337,4.0,5.6,98,0.00,,,0.00,meteobridge,2015-07-04 12:31:00,
2015-07-04 08:36:00,66.7,66.2,29.99,North,0,4.7,5.1,98,0.00,,,0.00,meteobridge,2015-07-04 12:36:00,
2015-07-04 08:41:00,67.5,66.2,30.00,NNW,337,4.0,4.7,96,0.00,,,0.00,meteobridge,2015-07-04 12:41:00,
2015-07-04 08:46:00,68.2,66.7,29.99,NNW,337,4.7,4.7,95,0.00,,,0.00,meteobridge,2015-07-04 12:46:00,
2015-07-04 08:52:00,68.5,66.7,29.99,NW,315,3.1,4.0,94,0.00,,,0.00,meteobridge,2015-07-04 12:52:00,
2015-07-04 08:57:00,69.8,67.1,29.99,NNW,337,4.7,5.1,91,0.00,,,0.00,meteobridge,2015-07-04 12:57:00,
2015-07-04 09:03:00,70.2,66.7,30.00,North,0,5.1,5.1,89,0.00,,,0.00,meteobridge,2015-07-04 13:03:00,
2015-07-04 09:08:00,70.2,66.0,29.99,North,0,4.7,4.7,87,0.00,,,0.00,meteobridge,2015-07-04 13:08:00,
2015-07-04 09:13:00,70.2,65.1,29.99,NNE,22,5.6,5.6,84,0.00,,,0.00,meteobridge,2015-07-04 13:13:00,
2015-07-04 09:18:00,70.9,65.1,29.99,NNE,22,4.7,5.6,82,0.00,,,0.00,meteobridge,2015-07-04 13:18:00,
2015-07-04 09:24:00,71.1,64.2,29.99,North,0,4.0,6.7,79,0.00,,,0.00,meteobridge,2015-07-04 13:24:00,
2015-07-04 09:29:00,69.1,61.9,30.00,NNW,337,7.2,8.3,78,0.00,,,0.00,meteobridge,2015-07-04 13:29:00,
2015-07-04 09:34:00,68.9,61.0,30.01,North,0,6.3,7.2,76,0.00,,,0.00,meteobridge,2015-07-04 13:34:00,
2015-07-04 09:39:00,69.1,61.2,30.01,North,0,5.6,6.7,76,0.00,,,0.00,meteobridge,2015-07-04 13:39:00,
2015-07-04 09:44:00,69.3,61.3,30.01,North,0,7.8,8.3,76,0.00,,,0.00,meteobridge,2015-07-04 13:44:00,
2015-07-04 09:50:00,69.3,61.3,30.01,North,0,5.6,8.7,76,0.00,,,0.00,meteobridge,2015-07-04 13:50:00,
2015-07-04 09:55:00,69.4,61.2,30.00,NNE,22,5.6,6.7,75,0.00,,,0.00,meteobridge,2015-07-04 13:55:00,
2015-07-04 10:00:00,69.8,61.2,30.00,NNW,337,5.6,6.7,74,0.00,,,0.00,meteobridge,2015-07-04 14:00:00,
2015-07-04 10:05:00,69.8,60.8,30.00,NW,315,8.3,8.3,73,0.00,,,0.00,meteobridge,2015-07-04 14:05:00,
2015-07-04 10:10:00,69.8,59.2,30.01,NNW,337,8.7,9.2,69,0.00,,,0.00,meteobridge,2015-07-04 14:10:00,
2015-07-04 10:16:00,70.0,58.5,30.00,NNE,22,5.6,9.2,67,0.00,,,0.00,meteobridge,2015-07-04 14:16:00,
2015-07-04 10:21:00,70.3,60.1,30.00,NNW,337,6.7,7.8,70,0.00,,,0.00,meteobridge,2015-07-04 14:21:00,
2015-07-04 10:26:00,70.9,60.3,30.00,NNE,22,7.2,8.7,69,0.00,,,0.00,meteobridge,2015-07-04 14:26:00,
2015-07-04 10:32:00,70.9,58.5,30.00,NNE,22,7.2,7.8,65,0.00,,,0.00,meteobridge,2015-07-04 14:32:00,
2015-07-04 10:37:00,71.6,60.1,30.00,North,0,5.6,8.7,67,0.00,,,0.00,meteobridge,2015-07-04 14:37:00,
2015-07-04 10:43:00,71.6,60.4,30.01,NNW,337,6.3,7.8,68,0.00,,,0.00,meteobridge,2015-07-04 14:43:00,
2015-07-04 10:48:00,71.6,60.1,30.01,NNE,22,5.1,8.7,67,0.00,,,0.00,meteobridge,2015-07-04 14:48:00,
2015-07-04 10:53:00,72.0,59.9,30.01,NNE,22,6.7,8.3,66,0.00,,,0.00,meteobridge,2015-07-04 14:53:00,
2015-07-04 10:59:00,72.0,59.2,30.01,NNW,337,7.2,7.2,64,0.00,,,0.00,meteobridge,2015-07-04 14:59:00,
2015-07-04 11:04:00,71.8,58.1,30.02,NNW,337,6.7,9.8,62,0.00,,,0.00,meteobridge,2015-07-04 15:04:00,
2015-07-04 11:09:00,71.8,57.6,30.01,North,0,7.8,10.7,61,0.00,,,0.00,meteobridge,2015-07-04 15:09:00,
2015-07-04 11:14:00,72.0,57.7,30.01,NNE,22,6.7,9.8,61,0.00,,,0.00,meteobridge,2015-07-04 15:14:00,
2015-07-04 11:19:00,72.0,58.6,30.00,North,0,7.8,8.3,63,0.00,,,0.00,meteobridge,2015-07-04 15:19:00,
2015-07-04 11:25:00,72.9,60.4,30.00,NNE,22,8.3,8.3,65,0.00,,,0.00,meteobridge,2015-07-04 15:25:00,
2015-07-04 11:30:00,72.9,59.9,30.01,NNE,22,6.7,8.3,64,0.00,,,0.00,meteobridge,2015-07-04 15:30:00,
2015-07-04 11:36:00,72.9,59.5,30.01,NNE,22,4.0,6.7,63,0.00,,,0.00,meteobridge,2015-07-04 15:36:00,
2015-07-04 11:41:00,72.9,59.0,30.00,NNW,337,6.7,9.2,62,0.00,,,0.00,meteobridge,2015-07-04 15:41:00,
2015-07-04 11:46:00,73.6,59.4,30.01,NW,315,6.3,7.2,61,0.00,,,0.00,meteobridge,2015-07-04 15:46:00,
2015-07-04 11:51:00,74.7,60.8,30.01,NE,45,5.6,7.2,62,0.00,,,0.00,meteobridge,2015-07-04 15:51:00,
2015-07-04 11:57:00,73.8,59.0,30.02,NNE,22,5.6,8.3,60,0.00,,,0.00,meteobridge,2015-07-04 15:57:00,
2015-07-04 12:02:00,73.8,59.9,30.02,NNE,22,5.1,7.2,62,0.00,,,0.00,meteobridge,2015-07-04 16:02:00,
2015-07-04 12:07:00,73.9,59.7,30.02,North,0,2.0,4.0,61,0.00,,,0.00,meteobridge,2015-07-04 16:07:00,
2015-07-04 12:12:00,75.4,62.4,30.02,NNE,22,5.1,6.3,64,0.00,,,0.00,meteobridge,2015-07-04 16:12:00,
2015-07-04 12:17:00,74.3,60.4,30.02,NNW,337,5.1,6.3,62,0.00,,,0.00,meteobridge,2015-07-04 16:17:00,
2015-07-04 12:22:00,75.4,62.4,30.02,NE,45,6.3,6.3,64,0.00,,,0.00,meteobridge,2015-07-04 16:22:00,
2015-07-04 12:28:00,74.7,61.7,30.02,NNE,22,5.1,6.3,64,0.00,,,0.00,meteobridge,2015-07-04 16:28:00,
2015-07-04 12:33:00,74.7,59.4,30.01,NNW,337,3.1,4.0,59,0.00,,,0.00,meteobridge,2015-07-04 16:33:00,
2015-07-04 12:38:00,75.6,61.7,30.01,East,90,4.7,6.3,62,0.00,,,0.00,meteobridge,2015-07-04 16:38:00,
2015-07-04 12:44:00,75.0,61.5,30.01,NW,315,5.1,6.7,63,0.00,,,0.00,meteobridge,2015-07-04 16:44:00,
2015-07-04 12:49:00,75.4,61.0,30.01,North,0,4.0,4.0,61,0.00,,,0.00,meteobridge,2015-07-04 16:49:00,
2015-07-04 12:54:00,76.5,62.1,30.01,NW,315,3.1,3.6,61,0.00,,,0.00,meteobridge,2015-07-04 16:54:00,
2015-07-04 12:59:00,75.7,62.2,30.01,NE,45,2.7,2.7,63,0.00,,,0.00,meteobridge,2015-07-04 16:59:00,
2015-07-04 13:05:00,76.6,61.2,30.01,NNW,337,4.0,7.2,59,0.00,,,0.00,meteobridge,2015-07-04 17:05:00,
2015-07-04 13:10:00,76.1,61.7,30.02,NW,315,2.7,5.6,61,0.00,,,0.00,meteobridge,2015-07-04 17:10:00,
2015-07-04 13:15:00,76.3,61.9,30.02,WNW,292,3.6,5.1,61,0.00,,,0.00,meteobridge,2015-07-04 17:15:00,
2015-07-04 13:21:00,76.1,62.1,30.02,NNW,337,4.0,5.6,62,0.00,,,0.00,meteobridge,2015-07-04 17:21:00,
2015-07-04 13:26:00,77.2,62.6,30.01,WNW,292,7.8,8.3,61,0.00,,,0.00,meteobridge,2015-07-04 17:26:00,
2015-07-04 13:32:00,76.5,63.0,30.01,NNW,337,9.8,9.8,63,0.00,,,0.00,meteobridge,2015-07-04 17:32:00,
2015-07-04 13:37:00,76.3,63.1,30.01,North,0,3.6,4.0,64,0.00,,,0.00,meteobridge,2015-07-04 17:37:00,
2015-07-04 13:42:00,77.4,63.3,30.00,WNW,292,4.0,7.8,62,0.00,,,0.00,meteobridge,2015-07-04 17:42:00,
2015-07-04 13:47:00,77.2,62.2,30.00,NW,315,6.3,9.8,60,0.00,,,0.00,meteobridge,2015-07-04 17:47:00,
2015-07-04 13:52:00,77.0,63.0,30.01,North,0,6.7,6.7,62,0.00,,,0.00,meteobridge,2015-07-04 17:52:00,
2015-07-04 13:57:00,76.6,63.1,30.01,NNW,337,4.7,6.7,63,0.00,,,0.00,meteobridge,2015-07-04 17:57:00,
2015-07-04 14:03:00,77.2,63.1,30.00,NNW,337,1.6,5.1,62,0.00,,,0.00,meteobridge,2015-07-04 18:03:00,
2015-07-04 14:08:00,77.4,62.8,30.01,West,270,4.0,6.7,61,0.00,,,0.00,meteobridge,2015-07-04 18:08:00,